Regional Weather Roundup
Issued by NWS Goodland, KS

Home | Current Version | Previous Version | Graphics & Text | Print | Product List | Glossary On
Versions: 1 2 3 4 5 6 7 8 9 10 11 12 13 14 15 16 17 18 19 20 21 22 23 24 25 26 27 28 29 30 31 32 33 34 35 36 37 38 39 40 41 42 43 44 45 46 47 48 49 50
000
ASUS43 KGLD 210759
RWRGLD

GOODLAND FORECAST AREA HOURLY WEATHER ROUNDUP
NATIONAL WEATHER SERVICE GOODLAND KS
200 AM MDT MON AUG 21 2017

...OFFICIAL OBSERVATIONS...

CITY           SKY/WX    TMP DP  RH WIND       PRES   REMARKS
GOODLAND KS    PTCLDY    67  63  87 S10       30.00F
HILL CITY KS   PTCLDY    79  65  62 S15G21    29.97F
IMPERIAL NEB   PTCLDY    67  65  93 SE3       29.98F
MCCOOK NEB     PTCLDY    75  64  68 S12       29.95F
AKRON CO       CLEAR     64  60  87 SW8       30.06S
BURLINGTON CO  PTCLDY    67  62  84 S5        30.03F
LIMON CO       CLOUDY    57  49  74 NW6       30.12F
$$

...UNOFFICIAL OBSERVATIONS...

CITY           SKY/WX    TMP DP  RH WIND       PRES   REMARKS
LENORA KS        N/A     77  32  19 S9          N/A
NORTON KS      CLEAR     75  57  53 S9        29.95F
TRENTON NEB      N/A     70  32  24 CALM        N/A
KIT CARSON CO    N/A     67  60  77 CALM        N/A
YUMA CO        FAIR      61  50  67 SW7       30.02F
$$




USA.gov is the U.S. government's official web portal to all federal, state and local government web resources and services.